Location: Unspecified
(49.2170°N, 0.0000°E)
Time: 22:34:13
(UTC+00:00)

Courier 1B Rocket - Pass Details

Date: 23 January 2021
Orbit: 920 x 1202 km, 28.2° (Epoch: 08 March)

Event Time Altitude Azimuth Distance (km) Brightness Sun altitude
Rises 10:27:20 0° 239° (WSW) 3,914 8.2 17.6°
Reaches altitude 10° 10:32:26 10° 209° (SSW) 3,023 8.2 18.0°
Maximum altitude 10:34:44 12° 191° (S) 2,929 8.6 18.1°
Drops below altitude 10° 10:37:03 10° 173° (S) 3,071 9.4 18.3°
Sets 10:42:23 0° 144° (SE) 4,072 9.7 18.6°
